TOURFACTS.DK  
Stats and Facts from Tour de France.

Tour de France 2018 starts in 169 days
  Riders   Stages   Teams   Summits   Yearly  


 
Search by year

 2017 - St.21:
 14824 starters.
  5132 different riders.
  635 teams.
  2232 stages.
  454 restdays.
  439589.60 km.
  5653 abandonnees.


Top 3
GC
Christopher Froome86:20:55
Rigoberto Uran86:21:49
Romain Bardet86:23:15
Climb
Warren Barguil169 pt.
Primoz Roglic80 pt.
Thomas De Gendt64 pt.
Sprint
Michael Matthews359 pt.
André Greipel234 pt.
Edvald Boasson Hagen220 pt.
Youth
Simon Yates86:27:09
Louis Meintjes86:29:15
Emanuel Buchmann86:54:16
Facts from Tour de France 2010
  |   Stages.  |   Stage winners.  |   Days in yellow  |   Average speed.  |   Route.  |   Teams.  |   All riders.  |   Rookies.  |   Withdrawls.  |  

  |   GC.  |   Polka  |   Green  |   White  |   Summits. (In tour)  |   Summits. (Points)  |   Miscellaneous.  |  

Stage 9 on 13 - 07 - 2010
         Owning:    Andy Schleck    
Pick a stage:  Pro 1 2 3 4 5 6 7 8 9 10 11 12 13 14 15 16 17 18 19 20
  Morzine-AvoriazSaint-Jean-de-Maurienne | Dist: 204.50 km.
Cat: 4Côte de ChatillonFRAJérôme Pineau
3 points
 
Cat: 1Col de la Colombiere FRAChristophe Moreau
15 points
 
Cat: 2Col de l'Aravis - ThônesFRAJérôme Pineau
10 points
 
Cat: 1Col des SaisiesFRAJérôme Pineau
15 points
 
Cat: HCol de la MadeleineFRAAnthony Charteau
40 points
 

Average speed for all riders in stage:  34,119 km./hr.
    Place:Name:Team:Time:Km/h:
FRASandy CasarFRAFrancaise Des Jeux05:38:10  +  00:00:00=36,284 
ESPLuis León SánchezESPCaisse d´Epargne05:38:10  +  00:00:00=36,284 
ITADamiano CunegoITALampre-Farnese Vini05:38:10  +  00:00:00=36,284 
4 FRAChristophe MoreauESPCaisse d´Epargne05:38:12  +  00:00:02=36,280 
5 FRAAnthony CharteauFRABbox Bouygues Telecom05:38:12  +  00:00:02=36,280 
6 ESPAlberto ContadorKAZAstana Pro Team05:38:12  +  00:00:02=36,280 
7 LUXAndy SchleckDNKTeam Saxo Bank05:38:12  +  00:00:02=36,280 
8 ESPSamuel SanchezESPEuskaltel - Euskadi05:38:12  +  00:00:02=36,280 
9 ESPJoaquim RodriguezRUSTeam Katusha05:40:17  +  00:02:07=36,058 
10 USALevi LeipheimerUSATeam Radio Shack05:40:17  +  00:02:07=36,058 
11 NEDRobert GesinkNLDRabobank05:40:17  +  00:02:07=36,058 
12 GERJens VoigtDNKTeam Saxo Bank05:40:17  +  00:02:07=36,058 
13 RUSDenis MenchovNLDRabobank05:40:20  +  00:02:10=36,053 
14 BELKevin De WeertBELQuick Step05:41:00  +  00:02:50=35,982 
15 ITAIvan BassoITALiquigas-Doimo05:41:00  +  00:02:50=35,982 
16 ESPRubén PlazaESPCaisse d´Epargne05:41:00  +  00:02:50=35,982 
17 BELJurgen Van Den BroeckBELOmega Pharma - Lotto05:41:00  +  00:02:50=35,982 
18 USALance ArmstrongUSATeam Radio Shack05:41:00  +  00:02:50=35,982 
19 CZERoman KreuzigerITALiquigas-Doimo05:41:58  +  00:03:48=35,881 
20 KAZAlexandre VinokourovKAZAstana Pro Team05:41:58  +  00:03:48=35,881 
21 GERAndréas KlödenUSATeam Radio Shack05:41:58  +  00:03:48=35,881 
22 FRADamien MonierFRACofidis Le Credit En Ligne05:42:01  +  00:03:51=35,875 
23 CANRyder HesjedalUSAGarmin-Transitions05:43:03  +  00:04:53=35,767 
24 FRACyril GautierFRABbox Bouygues Telecom05:43:05  +  00:04:55=35,764 
25 FRANicolas RocheFRAAg2r La Mondiale05:43:05  +  00:04:55=35,764 
26 FRAJohn GadretFRAAg2r La Mondiale05:43:05  +  00:04:55=35,764 
27 ESPCarlos SastreCHECervelo Test Team05:43:05  +  00:04:55=35,764 
28 FRAChristophe Le MevelFRAFrancaise Des Jeux05:43:05  +  00:04:55=35,764 
29 ESPDaniel MorenoBELOmega Pharma - Lotto05:43:05  +  00:04:55=35,764 
30 BELBradley WigginsGBRSky Procycling05:43:05  +  00:04:55=35,764 
31 FRAChristophe RiblonFRAAg2r La Mondiale05:43:05  +  00:04:55=35,764 
32 AUSMichael RogersUSATeam Columbia-HTC05:43:05  +  00:04:55=35,764 
33 JPNChristopher HornerUSATeam Radio Shack05:43:05  +  00:04:55=35,764 
34 SWEThomas LövkvistGBRSky Procycling05:43:05  +  00:04:55=35,764 
35 BLRKanstantin SivtsovUSATeam Columbia-HTC05:43:05  +  00:04:55=35,764 
36 ESPJosé Ivan GutierrezESPCaisse d´Epargne05:43:09  +  00:04:59=35,757 
37 AUSMatthew LloydBELOmega Pharma - Lotto05:43:09  +  00:04:59=35,757 
38 UKRVolodymir GustovCHECervelo Test Team05:43:17  +  00:05:07=35,743 
39 ARGJuan Antonio FlechaGBRSky Procycling05:43:51  +  00:05:41=35,684 
40 ESPDaniel NavarroKAZAstana Pro Team05:45:52  +  00:07:42=35,476 
41 ITAMauro SantambrogioUSABMC Racing Team05:46:19  +  00:08:09=35,430 
42 AUSCadel EvansUSABMC Racing Team05:46:19  +  00:08:09=35,430 
43 ITAPaolo TiralongoKAZAstana Pro Team05:46:19  +  00:08:09=35,430 
44 BELJohan VansummerenUSAGarmin-Transitions05:46:19  +  00:08:09=35,430 
45 SLOJanez BrajkovicUSATeam Radio Shack05:46:19  +  00:08:09=35,430 
46 BELMario AertsBELOmega Pharma - Lotto05:46:19  +  00:08:09=35,430 
47 POLSylvester SzmydITALiquigas-Doimo05:46:19  +  00:08:09=35,430 
48 FRARémi PauriolFRACofidis Le Credit En Ligne05:46:19  +  00:08:09=35,430 
49 NEDBram TankinkNLDRabobank05:46:19  +  00:08:09=35,430 
50 ESPGorka VerdugoESPEuskaltel - Euskadi05:46:19  +  00:08:09=35,430 
51 FRAJérôme PineauBELQuick Step05:51:31  +  00:13:21=34,906 
52 FRAJulien El FarèsFRACofidis Le Credit En Ligne05:51:31  +  00:13:21=34,906 
53 ESPEgoi MartínezESPEuskaltel - Euskadi05:53:27  +  00:15:17=34,715 
54 SUISteve MorabitoUSABMC Racing Team05:53:27  +  00:15:17=34,715 
55 BELFrancis De GreefBELOmega Pharma - Lotto05:53:27  +  00:15:17=34,715 
56 PORSergio PaulinhoUSATeam Radio Shack05:53:27  +  00:15:17=34,715 
57 GERJohannes FröhlingerDEUTeam Milram05:53:29  +  00:15:19=34,712 
58 FRASylvain ChavanelBELQuick Step05:53:29  +  00:15:19=34,712 
59 ESPDavid De La FuenteKAZAstana Pro Team05:53:29  +  00:15:19=34,712 
60 DENChris Anker SørensenDNKTeam Saxo Bank05:53:29  +  00:15:19=34,712 
61 SUIJakob FuglsangDNKTeam Saxo Bank05:58:17  +  00:20:07=34,247 
62 ESPJosé Joaquin RojasESPCaisse d´Epargne05:58:49  +  00:20:39=34,196 
63 GERGrischa NiermannNLDRabobank05:58:49  +  00:20:39=34,196 
64 NEDKoos MoerenhoutNLDRabobank05:58:49  +  00:20:39=34,196 
65 CANMichael BarryGBRSky Procycling05:58:49  +  00:20:39=34,196 
66 URSIgnatas KonovalovasCHECervelo Test Team05:58:49  +  00:20:39=34,196 
67 USAGeorge HincapieUSABMC Racing Team05:58:49  +  00:20:39=34,196 
68 AUTThomas RohreggerDEUTeam Milram05:58:49  +  00:20:39=34,196 
69 WALGeraint ThomasGBRSky Procycling05:58:49  +  00:20:39=34,196 
70 FRAAmaël MoinardFRACofidis Le Credit En Ligne05:58:49  +  00:20:39=34,196 
71 ESPIvan VelascoESPEuskaltel - Euskadi05:58:49  +  00:20:39=34,196 
72 ESPJesus  HernandezKAZAstana Pro Team05:58:49  +  00:20:39=34,196 
73 FRAMaxime BouetFRAAg2r La Mondiale05:58:49  +  00:20:39=34,196 
74 KAZMaxim IglinskiyKAZAstana Pro Team05:58:49  +  00:20:39=34,196 
75 FRAPierrick FédrigoFRABbox Bouygues Telecom05:58:49  +  00:20:39=34,196 
76 NEDLars BoomNLDRabobank05:58:49  +  00:20:39=34,196 
77 NOREdvald Boasson HagenGBRSky Procycling05:58:49  +  00:20:39=34,196 
78 RUSPavel BruttRUSTeam Katusha05:58:49  +  00:20:39=34,196 
79 URSRein TaaramäeFRACofidis Le Credit En Ligne05:58:49  +  00:20:39=34,196 
80 ITARinaldo NocentiniFRAAg2r La Mondiale05:59:38  +  00:21:28=34,118 
81 BELMaxime MonfortUSATeam Columbia-HTC06:04:06  +  00:25:56=33,700 
82 ESPJuan Manuel GarateNLDRabobank06:04:06  +  00:25:56=33,700 
83 BELJurgen Van De WalleBELQuick Step06:04:06  +  00:25:56=33,700 
84 BELSerge PauwelsGBRSky Procycling06:04:06  +  00:25:56=33,700 
85 ESPAitor PerezESPFooton-Servetto06:04:06  +  00:25:56=33,700 
86 FRARémy Di GrégorioFRAFrancaise Des Jeux06:04:06  +  00:25:56=33,700 
87 ITAFrancesco GavazziITALampre-Farnese Vini06:04:06  +  00:25:56=33,700 
88 GERChristian KneesDEUTeam Milram06:04:06  +  00:25:56=33,700 
89 SUIGregory RastUSATeam Radio Shack06:04:06  +  00:25:56=33,700 
90 FRANicolas VogondyFRABbox Bouygues Telecom06:04:06  +  00:25:56=33,700 
91 DENNicki SørensenDNKTeam Saxo Bank06:04:06  +  00:25:56=33,700 
92 BELMaarten WynantsBELQuick Step06:04:06  +  00:25:56=33,700 
93 SLOKristjan KorenITALiquigas-Doimo06:04:06  +  00:25:56=33,700 
94 DENMatti BreschelDNKTeam Saxo Bank06:04:06  +  00:25:56=33,700 
95 SLOSimon SpilakITALampre-Farnese Vini06:04:06  +  00:25:56=33,700 
96 JPNYukiya ArashiroFRABbox Bouygues Telecom06:04:06  +  00:25:56=33,700 
97 USADavid ZabriskieUSAGarmin-Transitions06:04:06  +  00:25:56=33,700 
98 SLOGrega BoleITALampre-Farnese Vini06:04:06  +  00:25:56=33,700 
99 ESPRafael Valls FerriESPFooton-Servetto06:04:06  +  00:25:56=33,700 
100 GERSebastian LangBELOmega Pharma - Lotto06:04:06  +  00:25:56=33,700 
101 ESPBenjamin NovalKAZAstana Pro Team06:04:06  +  00:25:56=33,700 
102 ESPCarlos BarredoBELQuick Step06:04:06  +  00:25:56=33,700 
103 ITAEros CapecchiESPFooton-Servetto06:04:06  +  00:25:56=33,700 
104 ESPImanol ErvitiESPCaisse d´Epargne06:04:06  +  00:25:56=33,700 
105 GERFabian WegmannDEUTeam Milram06:04:06  +  00:25:56=33,700 
106 FRAMathieu PergetESPCaisse d´Epargne06:04:06  +  00:25:56=33,700 
107 GERLinus GerdemannDEUTeam Milram06:04:06  +  00:25:56=33,700 
108 BLRVasil KiryienkaESPCaisse d´Epargne06:04:06  +  00:25:56=33,700 
109 UKRYaroslav PopovychUSATeam Radio Shack06:04:06  +  00:25:56=33,700 
110 PORRui CostaESPCaisse d´Epargne06:04:06  +  00:25:56=33,700 
111 ESPArkaitz DuranESPFooton-Servetto06:04:06  +  00:25:56=33,700 
112 KAZDmitriy MuravyevUSATeam Radio Shack06:04:06  +  00:25:56=33,700 
113 AUSStuart O'GradyDNKTeam Saxo Bank06:04:06  +  00:25:56=33,700 
114 BELDries DevenynsBELQuick Step06:04:06  +  00:25:56=33,700 
115 ITAAlessandro BallanUSABMC Racing Team06:04:06  +  00:25:56=33,700 
116 ITADaniel OssITALiquigas-Doimo06:04:06  +  00:25:56=33,700 
117 FRAAnthony GeslinFRAFrancaise Des Jeux06:08:25  +  00:30:15=33,305 
118 ITAFrancesco BellottiITALiquigas-Doimo06:08:25  +  00:30:15=33,305 
119 FRASébastien MinardFRACofidis Le Credit En Ligne06:08:25  +  00:30:15=33,305 
120 NEDMaarten TjallingiiNLDRabobank06:08:25  +  00:30:15=33,305 
121 AUSLuke RobertsDEUTeam Milram06:08:25  +  00:30:15=33,305 
122 DENBrian VandborgITALiquigas-Doimo06:08:25  +  00:30:15=33,305 
123 RUSSerguei IvanovRUSTeam Katusha06:08:25  +  00:30:15=33,305 
124 FRAMatthieu SprickFRABbox Bouygues Telecom06:08:25  +  00:30:15=33,305 
125 ESPIñaki Isasi FloresESPEuskaltel - Euskadi06:08:25  +  00:30:15=33,305 
126 BLRAliaksandr KuchynskiITALiquigas-Doimo06:08:25  +  00:30:15=33,305 
127 ESPAlan PerezESPEuskaltel - Euskadi06:08:25  +  00:30:15=33,305 
128 ESPRuben PerezESPEuskaltel - Euskadi06:08:25  +  00:30:15=33,305 
129 NEDKarsten KroonUSABMC Racing Team06:08:25  +  00:30:15=33,305 
130 USABrent BookwalterUSABMC Racing Team06:08:25  +  00:30:15=33,305 
131 RSARobert HunterUSAGarmin-Transitions06:08:25  +  00:30:15=33,305 
132 ITAManuel QuinziatoITALiquigas-Doimo06:08:25  +  00:30:15=33,305 
133 SUIFabian CancellaraDNKTeam Saxo Bank06:08:25  +  00:30:15=33,305 
134 FRABenoit VaugrenardFRAFrancaise Des Jeux06:08:25  +  00:30:15=33,305 
135 ITAMauro Da DaltoITALampre-Farnese Vini06:13:06  +  00:34:56=32,887 
136 SUIMartin ElmigerFRAAg2r La Mondiale06:13:07  +  00:34:57=32,885 
137 ENGStephen CummingsGBRSky Procycling06:13:07  +  00:34:57=32,885 
138 MDAAlexandr PliuschinRUSTeam Katusha06:13:07  +  00:34:57=32,885 
139 ITAAlessandro PetacchiITALampre-Farnese Vini06:13:07  +  00:34:57=32,885 
140 ESPJosé BenitezESPFooton-Servetto06:13:07  +  00:34:57=32,885 
141 FRAMatthieu LadagnousFRAFrancaise Des Jeux06:13:07  +  00:34:57=32,885 
142 FRALloyd MondoryFRAAg2r La Mondiale06:13:07  +  00:34:57=32,885 
143 GERBert GrabschUSATeam Columbia-HTC06:13:07  +  00:34:57=32,885 
144 IOMMark CavendishUSATeam Columbia-HTC06:13:07  +  00:34:57=32,885 
145 UKRAndriy GrivkoKAZAstana Pro Team06:13:07  +  00:34:57=32,885 
146 FRASébastien TurgotFRABbox Bouygues Telecom06:13:07  +  00:34:57=32,885 
147 ITAMirco LorenzettoITALampre-Farnese Vini06:13:07  +  00:34:57=32,885 
148 AUSWesley SulzbergerFRAFrancaise Des Jeux06:13:07  +  00:34:57=32,885 
149 RUSAlexandr KolobnevRUSTeam Katusha06:13:07  +  00:34:57=32,885 
150 FRAThomas VoecklerFRABbox Bouygues Telecom06:13:07  +  00:34:57=32,885 
151 ITAAdriano MaloriITALampre-Farnese Vini06:13:07  +  00:34:57=32,885 
152 FRADimitri ChampionFRAAg2r La Mondiale06:13:07  +  00:34:57=32,885 
153 ESPIban MayozESPFooton-Servetto06:13:07  +  00:34:57=32,885 
154 NEDMartijn MaaskantUSAGarmin-Transitions06:13:07  +  00:34:57=32,885 
155 FINCharles WegeliusBELOmega Pharma - Lotto06:13:07  +  00:34:57=32,885 
156 USATyler FarrarUSAGarmin-Transitions06:13:07  +  00:34:57=32,885 
157 BELJürgen RoelandtsBELOmega Pharma - Lotto06:13:07  +  00:34:57=32,885 
158 FRAStéphane AugeFRACofidis Le Credit En Ligne06:13:07  +  00:34:57=32,885 
159 NORThor HushovdCHECervelo Test Team06:13:07  +  00:34:57=32,885 
160 GERDanilo HondoITALampre-Farnese Vini06:13:07  +  00:34:57=32,885 
161 RUSEduard VorganovRUSTeam Katusha06:13:07  +  00:34:57=32,885 
162 GERGerald CiolekDEUTeam Milram06:13:07  +  00:34:57=32,885 
163 FRAJérémy RoyFRAFrancaise Des Jeux06:13:07  +  00:34:57=32,885 
164 ENGDaniel LloydCHECervelo Test Team06:13:07  +  00:34:57=32,885 
165 FRASamuel DumoulinFRACofidis Le Credit En Ligne06:13:07  +  00:34:57=32,885 
166 GERTony MartinUSATeam Columbia-HTC06:13:07  +  00:34:57=32,885 
167 FRAPierre RollandFRABbox Bouygues Telecom06:13:07  +  00:34:57=32,885 
168 FRAChristophe KernFRACofidis Le Credit En Ligne06:13:07  +  00:34:57=32,885 
169 NZLJulian DeanUSAGarmin-Transitions06:13:07  +  00:34:57=32,885 
170 ITAFrancesco RedaBELQuick Step06:13:07  +  00:34:57=32,885 
171 ESPOscar FreireNLDRabobank06:13:07  +  00:34:57=32,885 
172 AUSBrett LancasterCHECervelo Test Team06:13:07  +  00:34:57=32,885 
173 AUSMark RenshawUSATeam Columbia-HTC06:13:07  +  00:34:57=32,885 
174 AUTBernhard EiselUSATeam Columbia-HTC06:13:07  +  00:34:57=32,885 
175 GERAndreas KlierCHECervelo Test Team06:13:07  +  00:34:57=32,885 
176 CANJeremy HuntCHECervelo Test Team06:13:07  +  00:34:57=32,885 
177 BELKevin SeeldraeyersBELQuick Step06:13:07  +  00:34:57=32,885 
178 AUSRobbie McEwenRUSTeam Katusha06:13:07  +  00:34:57=32,885 
179 GERMarcus BurghardtUSABMC Racing Team06:13:19  +  00:35:09=32,868 
180 FRAAnthony RouxFRAFrancaise Des Jeux06:13:24  +  00:35:14=32,860 
181 MLTDavid MillarUSAGarmin-Transitions06:20:55  +  00:42:45=32,212 

Withdrawls: 5
 
Rider
Team
Reason
35  AUSSimon GerransGBRSky ProcyclingDid not start
71  RUSVladimir KarpetsRUSTeam KatushaDid not start
144  GERRoger KlugeDEUTeam MilramDid not start
215  AUTMarkus EibeggerESPFooton-ServettoDid not finish
216  ITAFabio FellineESPFooton-ServettoDid not start

Todays birthdays.

1887  Marcel Godivier
1895  Louis Thuayre
1896  Léon Devos
1932  Aniceto Utset
1935  Willy Altig
1939  Sebastián Elorza
1941  René Binggeli
1948  Gerard Moneyron
1953  Patrocinio Jiménez
1954  Pierre Bazzo
1955  Serge Beucherie
1967  Antonio Politano
1969  Sergio Barbero
1977  Luca Paolini
1980  Gregory Rast
1981  Christophe Riblon
1985  Sebastian Langeveld
1990  Johan Esteban Chaves




Visits: